GSAT-16

Last updated on Fri Dec 19 2025 00:02:51 GMT+0000 (Coordinated Universal Time)

1 40332U 14078A 25352.08100512 .00000000 00000+0 00000+0 0 9994 2 40332 0.0200 9.0545 0002965 104.2659 57.8431 1.00269550 40299
UTC large
Height (km)
Speed (km/s)
/
Latitude / Longitude
Inclination (degrees)
Orbital Period (minutes)
Azimuth
Elevation
Range (km)
Doppler Factor

Next 0 passes for location: London (51.5072 / 0.1276)

Sorry there are no passes over London.